TimeEST,TemperatureF,Dew PointF,Humidity,Sea Level PressureIn,VisibilityMPH,Wind Direction,Wind SpeedMPH,Gust SpeedMPH,PrecipitationIn,Events,Conditions,WindDirDegrees,DateUTC
12:53 AM,48.0,37.9,68,30.18,10.0,WSW,4.6,-,N/A,,Clear,240,2013-03-05 05:53:00
2:53 AM,46.9,39.9,77,30.17,10.0,WSW,3.5,-,N/A,,Clear,240,2013-03-05 07:53:00
3:53 AM,46.9,39.9,77,30.16,10.0,Calm,Calm,-,N/A,,Clear,0,2013-03-05 08:53:00
4:53 AM,46.0,39.9,79,30.15,10.0,SSW,3.5,-,N/A,,Clear,210,2013-03-05 09:53:00
5:53 AM,46.0,41.0,83,30.18,10.0,SW,3.5,-,N/A,,Clear,230,2013-03-05 10:53:00
6:53 AM,46.0,41.0,83,30.19,10.0,Calm,Calm,-,N/A,,Clear,0,2013-03-05 11:53:00
8:53 AM,59.0,43.0,55,30.21,10.0,South,8.1,-,N/A,,Clear,190,2013-03-05 13:53:00
9:53 AM,63.0,43.0,48,30.22,10.0,SSW,6.9,-,N/A,,Clear,200,2013-03-05 14:53:00
10:53 AM,68.0,37.9,33,30.19,10.0,SSW,11.5,-,N/A,,Clear,200,2013-03-05 15:53:00
11:53 AM,71.1,37.9,30,30.18,10.0,WSW,5.8,-,N/A,,Clear,240,2013-03-05 16:53:00
12:53 PM,73.9,41.0,30,30.15,10.0,SW,9.2,17.3,N/A,,Clear,220,2013-03-05 17:53:00
1:53 PM,75.0,43.0,32,30.11,10.0,SSW,10.4,18.4,N/A,,Clear,200,2013-03-05 18:53:00
2:53 PM,77.0,41.0,28,30.09,10.0,WSW,13.8,-,N/A,,Clear,240,2013-03-05 19:53:00
3:53 PM,75.9,43.0,31,30.09,10.0,WSW,13.8,23.0,N/A,,Clear,250,2013-03-05 20:53:00
4:53 PM,75.9,39.9,27,30.08,10.0,SW,17.3,21.9,N/A,,Clear,230,2013-03-05 21:53:00
5:53 PM,73.0,39.0,29,30.06,10.0,SW,10.4,19.6,N/A,,Clear,220,2013-03-05 22:53:00
6:53 PM,70.0,37.0,30,30.07,10.0,SW,12.7,-,N/A,,Clear,220,2013-03-05 23:53:00
7:53 PM,66.9,35.1,31,30.06,10.0,SW,12.7,-,N/A,,Clear,220,2013-03-06 00:53:00
8:53 PM,64.9,37.9,37,30.06,10.0,SW,13.8,-,N/A,,Clear,230,2013-03-06 01:53:00
9:53 PM,64.0,48.9,58,30.06,10.0,SW,10.4,-,N/A,,Clear,220,2013-03-06 02:53:00
10:53 PM,63.0,54.0,72,30.05,10.0,SW,10.4,-,N/A,,Mostly Cloudy,220,2013-03-06 03:53:00
11:53 PM,64.9,57.0,75,30.04,10.0,SW,16.1,-,N/A,,Overcast,220,2013-03-06 04:53:00